2023/01/28 00:00:00,39.3,-0.6
2023/01/28 00:10:00,39.8,-0.9
2023/01/28 00:20:00,40.4,-0.8
2023/01/28 00:30:00,40.7,-0.7
2023/01/28 00:40:00,41.3,-0.8
2023/01/28 00:50:00,42.2,-0.9
2023/01/28 01:00:00,44.0,-1.0
2023/01/28 01:10:00,45.9,-0.9
2023/01/28 01:20:00,46.3,-0.8
2023/01/28 01:30:00,46.1,-0.9
2023/01/28 01:40:00,46.3,-1.1
2023/01/28 01:50:00,46.3,-0.9
2023/01/28 02:00:00,46.6,-1.4
2023/01/28 02:10:00,47.1,-1.6
2023/01/28 02:20:00,48.2,-1.4
2023/01/28 02:30:00,49.5,-1.5
2023/01/28 02:40:00,51.4,-1.2
2023/01/28 02:50:00,52.9,-1.3
2023/01/28 03:00:00,54.3,-1.3
2023/01/28 03:10:00,54.8,-0.7
2023/01/28 03:20:00,55.3,-1.4
2023/01/28 03:30:00,55.9,-1.2
2023/01/28 03:40:00,56.4,-1.2
2023/01/28 03:50:00,56.8,-1.2
2023/01/28 04:00:00,56.8,-1.2
2023/01/28 04:10:00,58.5,-1.3
2023/01/28 04:20:00,59.8,-1.2
2023/01/28 04:30:00,60.4,-1.2
2023/01/28 04:40:00,61.4,-1.4
2023/01/28 04:50:00,62.5,-1.4
2023/01/28 05:00:00,62.6,-1.4
2023/01/28 05:10:00,62.9,-1.3
2023/01/28 05:20:00,64.1,-1.4
2023/01/28 05:30:00,64.7,-1.5
2023/01/28 05:40:00,65.6,-1.5
2023/01/28 05:50:00,65.9,-1.5
2023/01/28 06:00:00,65.6,-1.6
2023/01/28 06:10:00,66.3,-1.5
2023/01/28 06:20:00,67.1,-1.7
2023/01/28 06:30:00,67.2,-1.6
2023/01/28 06:40:00,67.5,-1.4
2023/01/28 06:50:00,67.2,-1.4
2023/01/28 07:00:00,67.0,-1.6
2023/01/28 07:10:00,66.7,-1.2
2023/01/28 07:20:00,67.2,-1.3
2023/01/28 07:30:00,68.2,-1.2
2023/01/28 07:40:00,68.1,-1.0
2023/01/28 07:50:00,68.0,-1.0
2023/01/28 08:00:00,67.8,-0.8
2023/01/28 08:10:00,67.6,-0.7
2023/01/28 08:20:00,67.3, 0.1
2023/01/28 08:30:00,67.2, 0.0
2023/01/28 08:40:00,66.8, 0.1
2023/01/28 08:50:00,66.5,-0.4
2023/01/28 09:00:00,66.8, 0.1
2023/01/28 09:10:00,66.6, 0.5
2023/01/28 09:20:00,66.7, 0.3
2023/01/28 09:30:00,66.3, 1.8
2023/01/28 09:40:00,65.8, 3.7
2023/01/28 09:50:00,64.8, 5.1
2023/01/28 10:00:00,64.4, 3.7
2023/01/28 10:10:00,63.5, 4.4
2023/01/28 10:20:00,62.7, 3.4
2023/01/28 10:30:00,62.7, 3.9
2023/01/28 10:40:00,61.8, 4.7
2023/01/28 10:50:00,61.2, 3.5
2023/01/28 11:00:00,60.8, 3.4
2023/01/28 11:10:00,60.3, 2.8
2023/01/28 11:20:00,60.2, 3.0
2023/01/28 11:30:00,59.6, 3.6
2023/01/28 11:40:00,59.4, 3.3
2023/01/28 11:50:00,59.0, 2.1
2023/01/28 12:00:00,58.6, 1.5
2023/01/28 12:10:00,57.9, 3.6
2023/01/28 12:20:00,57.8, 4.2
2023/01/28 12:30:00,57.1, 4.7
2023/01/28 12:40:00,56.8, 5.5
2023/01/28 12:50:00,56.0, 4.9
2023/01/28 13:00:00,55.4, 4.9
2023/01/28 13:10:00,55.2, 4.7
2023/01/28 13:20:00,55.1, 3.2
2023/01/28 13:30:00,55.1, 3.3
2023/01/28 13:40:00,55.1, 2.5
2023/01/28 13:50:00,54.7, 2.4
2023/01/28 14:00:00,54.4, 2.4
2023/01/28 14:10:00,54.2, 1.0
2023/01/28 14:20:00,54.4, 1.0
2023/01/28 14:30:00,54.1, 1.9
2023/01/28 14:40:00,53.7, 2.9
2023/01/28 14:50:00,53.3, 2.6
2023/01/28 15:00:00,53.3, 2.3
2023/01/28 15:10:00,53.0, 1.8
2023/01/28 15:20:00,53.2, 1.1
2023/01/28 15:30:00,53.0, 1.5
2023/01/28 15:40:00,52.8, 1.7
2023/01/28 15:50:00,52.9, 1.4
2023/01/28 16:00:00,52.7, 1.6
2023/01/28 16:10:00,52.4, 1.4
2023/01/28 16:20:00,52.3, 1.6
2023/01/28 16:30:00,52.2, 1.5
2023/01/28 16:40:00,51.9, 1.1
2023/01/28 16:50:00,51.8, 1.0
2023/01/28 17:00:00,51.7, 0.5
2023/01/28 17:10:00,51.5, 0.1
2023/01/28 17:20:00,51.6,-0.2
2023/01/28 17:30:00,51.7,-0.5
2023/01/28 17:40:00,51.7,-0.6
2023/01/28 17:50:00,51.3,-0.8
2023/01/28 18:00:00,50.9,-0.7
2023/01/28 18:10:00,50.9,-0.7
2023/01/28 18:20:00,50.8,-1.2
2023/01/28 18:30:00,50.7,-1.4
2023/01/28 18:40:00,50.6,-1.8
2023/01/28 18:50:00,50.4,-1.8
2023/01/28 19:00:00,50.4,-2.1
2023/01/28 19:10:00,50.4,-2.2
2023/01/28 19:20:00,50.2,-2.8
2023/01/28 19:30:00,50.1,-2.9
2023/01/28 19:40:00,49.9,-3.0
2023/01/28 19:50:00,49.5,-2.8
2023/01/28 20:00:00,49.2,-2.6
2023/01/28 20:10:00,49.2,-2.6
2023/01/28 20:20:00,49.1,-2.3
2023/01/28 20:30:00,49.1,-2.2
2023/01/28 20:40:00,49.1,-2.4
2023/01/28 20:50:00,49.0,-2.9
2023/01/28 21:00:00,49.0,-2.5
2023/01/28 21:10:00,49.0,-2.6
2023/01/28 21:20:00,48.9,-3.1
2023/01/28 21:30:00,48.7,-2.9
2023/01/28 21:40:00,48.6,-2.5
2023/01/28 21:50:00,48.7,-2.7
2023/01/28 22:00:00,48.7,-2.6
2023/01/28 22:10:00,48.7,-2.7
2023/01/28 22:20:00,48.5,-2.6
2023/01/28 22:30:00,48.5,-3.0
2023/01/28 22:40:00,48.5,-2.6
2023/01/28 22:50:00,48.5,-2.8
2023/01/28 23:00:00,48.5,-2.9
2023/01/28 23:10:00,48.4,-2.8
2023/01/28 23:20:00,48.4,-3.6
2023/01/28 23:30:00,48.4,-3.9
2023/01/28 23:40:00,48.4,-4.1
2023/01/28 23:50:00,48.4,-4.5
